This demonstration page uses our WeatherBlox Daily Observations layout. Learn more.

Left ArrowRight Arrow

40.92945, -100.16068

Hourly Observations for November 19, 2015

Temp ( °F °C ) Dew Point ( °F °C ) Humidity (%) Winds ( mph kmh ) Pressure ( in mb ) Visibility ( mi km ) Precip ( " mm )
12:15 am 00:15 Clear 32 0.2 25 -3.7 75 75 WNW 9 15 30.15 1021 10 16 N/A
12:35 am 00:35 Clear 31 -0.5 25 -3.7 79 79 WNW 7 11 30.15 1021 10 16 N/A
12:55 am 00:55 Clear 31 -0.6 25 -4 78 78 WNW 8 13 30.15 1021 10 16 N/A
1:15 am 01:15 Clear 29 -1.5 24 -4.3 81 81 WNW 7 11 30.15 1021 10 16 N/A
1:35 am 01:35 Clear 28 -2.5 23 -5 83 83 SW 6 9 30.18 1022 10 16 N/A
1:55 am 01:55 Clear 28 -2.1 23 -4.9 81 81 WNW 6 9 30.18 1022 10 16 N/A
2:15 am 02:15 Clear 28 -2.1 24 -4.4 84 84 W 7 11 30.18 1022 10 16 N/A
2:35 am 02:35 Clear 29 -1.8 23 -4.8 80 80 W 6 9 30.18 1022 10 16 N/A
2:55 am 02:55 Clear 28 -2.3 23 -5.2 81 81 WSW 5 7 30.21 1023 10 16 N/A
3:15 am 03:15 Clear 28 -2.5 22 -5.3 81 81 W 6 9 30.21 1023 10 16 N/A
3:35 am 03:35 Clear 27 -2.6 22 -5.5 81 81 W 8 13 30.21 1023 10 16 N/A
3:55 am 03:55 Clear 28 -2.1 23 -4.8 82 82 W 7 11 30.21 1023 10 16 N/A
4:15 am 04:15 Clear 28 -2.2 23 -4.9 82 82 W 7 11 30.21 1023 10 16 N/A
4:35 am 04:35 Clear 28 -2.1 23 -5 81 81 W 7 11 30.21 1023 10 16 N/A
4:55 am 04:55 Clear 27 -2.6 22 -5.5 81 81 W 7 11 30.24 1024 10 16 N/A
5:15 am 05:15 Clear 25 -3.7 21 -6.2 83 83 WNW 6 9 30.24 1024 10 16 N/A
5:35 am 05:35 Clear 25 -3.7 22 -5.8 86 86 WNW 5 7 30.24 1024 10 16 N/A
5:55 am 05:55 Clear 25 -4 21 -6.2 85 85 WNW 6 9 30.24 1024 10 16 N/A
6:15 am 06:15 Clear 24 -4.5 20 -6.5 86 86 NW 6 9 30.27 1025 10 16 N/A
6:35 am 06:35 Clear 24 -4.7 20 -6.4 88 88 NW 5 7 30.30 1026 10 16 N/A
6:55 am 06:55 Clear 23 -5.2 20 -6.8 89 89 NW 5 7 30.30 1026 10 16 N/A
7:15 am 07:15 Clear 23 -5.1 20 -6.6 89 89 W 5 7 30.33 1027 10 16 N/A
7:35 am 07:35 Sunny 22 -5.5 20 -6.8 91 91 NW 5 7 30.33 1027 10 16 N/A
7:55 am 07:55 Partly Cloudy 23 -4.8 21 -6.1 91 91 WNW 5 7 30.33 1027 10 16 N/A
8:15 am 08:15 Sunny 26 -3.5 23 -5 89 89 N N/A 30.30 1026 10 16 N/A
8:35 am 08:35 Sunny 28 -2.5 25 -4.1 89 89 N N/A 30.30 1026 10 16 N/A
8:55 am 08:55 Sunny 29 -1.4 26 -3.4 86 86 N N/A 30.33 1027 10 16 N/A
9:15 am 09:15 Sunny 33 0.4 27 -2.6 81 81 W 5 7 30.30 1026 10 16 N/A
9:35 am 09:35 Sunny 35 1.7 26 -3.4 69 69 W 8 13 30.30 1026 10 16 N/A
9:55 am 09:55 Sunny 37 2.7 25 -3.8 63 63 W 10 17 30.27 1025 10 16 N/A
10:15 am 10:15 Sunny 38 3.5 23 -5.2 53 53 W 12 19 30.27 1025 10 16 N/A
10:35 am 10:35 Sunny 39 4.1 22 -5.6 50 50 W 12 19 30.27 1025 10 16 N/A
10:55 am 10:55 Sunny 40 4.7 20 -6.4 45 45 W 10 17 30.27 1025 10 16 N/A
11:15 am 11:15 Sunny 42 5.5 17 -8.1 37 37 W 9 15 30.24 1024 10 16 N/A
11:35 am 11:35 Sunny 43 6 17 -8.1 36 36 WNW 10 17 30.24 1024 10 16 N/A
11:55 am 11:55 Sunny 43 6.3 18 -7.8 36 36 WNW 14 22 30.24 1024 10 16 N/A
12:15 pm 12:15 Sunny 45 7 19 -7.1 36 36 WNW 14 22 30.24 1024 10 16 N/A
12:35 pm 12:35 Sunny 45 7 18 -7.8 34 34 W 10 17 30.21 1023 10 16 N/A
12:55 pm 12:55 Sunny 45 7.4 18 -7.6 34 34 W 8 13 30.21 1023 10 16 N/A
1:15 pm 13:15 Sunny 45 7.4 18 -7.6 34 34 WSW 7 11 30.21 1023 10 16 N/A
1:35 pm 13:35 Sunny 46 7.5 18 -7.7 33 33 WNW 9 15 30.21 1023 10 16 N/A
1:55 pm 13:55 Sunny 46 7.6 18 -7.8 33 33 W 10 17 30.15 1021 10 16 N/A
2:15 pm 14:15 Sunny 46 7.6 17 -8.1 32 32 W 10 17 30.15 1021 10 16 N/A
2:35 pm 14:35 Sunny 46 7.6 17 -8.2 32 32 W 8 13 30.15 1021 10 16 N/A
2:55 pm 14:55 Sunny 46 7.7 18 -7.8 33 33 WSW 6 9 30.15 1021 10 16 N/A
3:15 pm 15:15 Sunny 46 7.6 18 -7.6 33 33 SSW 7 11 30.12 1020 10 16 N/A
3:35 pm 15:35 Sunny 46 7.5 19 -7.5 34 34 WSW 6 9 30.12 1020 10 16 N/A
3:55 pm 15:55 Sunny 45 7.2 18 -7.7 34 34 SW 12 19 30.18 1022 10 16 N/A
4:15 pm 16:15 Sunny 43 6.1 17 -8.1 36 36 SW 7 11 30.18 1022 10 16 N/A
4:35 pm 16:35 Partly Cloudy 40 4.7 21 -6.1 46 46 SW 6 9 30.18 1022 10 16 N/A
4:55 pm 16:55 Mostly Cloudy 40 4.4 24 -4.4 53 53 S 7 11 30.18 1022 10 16 N/A
5:15 pm 17:15 Cloudy 38 3.3 25 -3.7 60 60 S 7 11 30.18 1022 10 16 N/A
5:35 pm 17:35 Cloudy 38 3.3 27 -2.8 65 65 S 6 9 30.18 1022 10 16 N/A
5:55 pm 17:55 Cloudy 38 3.2 27 -2.7 66 66 S 3 6 30.18 1022 10 16 N/A
6:15 pm 18:15 Cloudy 37 2.9 28 -2.1 70 70 S 5 7 30.18 1022 10 16 N/A
6:35 pm 18:35 Cloudy 37 3 28 -2.5 67 67 ESE 3 6 30.18 1022 10 16 N/A
6:55 pm 18:55 Cloudy 37 3 27 -2.9 66 66 SE 5 7 30.18 1022 10 16 N/A
7:15 pm 19:15 Cloudy 38 3.3 25 -4.1 59 59 SE 3 6 30.18 1022 10 16 N/A
7:35 pm 19:35 Cloudy 38 3.4 25 -4 59 59 N N/A 30.21 1023 10 16 N/A
7:55 pm 19:55 Cloudy 38 3.1 26 -3.2 64 64 SSE 7 11 30.18 1022 10 16 N/A
8:15 pm 20:15 Cloudy 38 3.2 25 -4 60 60 SE 7 11 30.18 1022 10 16 N/A
8:35 pm 20:35 Cloudy 38 3.2 25 -4 60 60 SSE 7 11 30.18 1022 10 16 N/A
8:55 pm 20:55 Cloudy 38 3.1 25 -3.9 60 60 SE 5 7 30.18 1022 10 16 N/A
9:15 pm 21:15 Cloudy 38 3.2 25 -4 60 60 SE 6 9 30.18 1022 10 16 N/A
9:35 pm 21:35 Cloudy 38 3.5 24 -4.2 57 57 SE 7 11 30.18 1022 10 16 N/A
9:55 pm 21:55 Cloudy 38 3.6 26 -3.5 60 60 SE 5 7 30.18 1022 10 16 N/A
10:15 pm 22:15 Cloudy 38 3.5 27 -3 63 63 ESE 6 9 30.18 1022 10 16 N/A
10:35 pm 22:35 Cloudy 38 3.5 27 -2.6 65 65 SE 7 11 30.15 1021 10 16 N/A
10:55 pm 22:55 Cloudy 38 3.3 28 -2.4 67 67 ESE 7 11 30.15 1021 10 16 N/A
11:15 pm 23:15 Cloudy 37 3 28 -2.1 69 69 SE 7 11 30.12 1020 10 16 N/A
11:35 pm 23:35 Cloudy 37 2.7 28 -2 71 71 SE 6 9 30.12 1020 10 16 N/A
11:55 pm 23:55 Mostly Cloudy 35 1.8 28 -2 76 76 SE 6 9 30.12 1020 10 16 N/A

Powered by AerisWeather